Location: Cortada de Papelón
(10.0378°N, 66.9528°W)
Time: 16:39:47
(UTC+00:00)

Helios 1B rocket - Pass Details

Date: 13 June 2024
Orbit: 533 x 541 km, 98.2° (Epoch: 20 July)

Event Time Altitude Azimuth Distance (km) Brightness Sun altitude
Rises 23:00:32 0° 173° (S) 2,694 5.5 -3.4°
Reaches altitude 10° 23:02:39 10° 176° (S) 1,800 4.7 -3.8°
Maximum altitude 23:06:31 65° 258° (WSW) 592 2.8 -4.7°
Drops below altitude 10° 23:10:21 10° 341° (NNW) 1,790 5.6 -5.6°
Sets 23:12:28 0° 344° (NNW) 2,678 6.5 -6.0°
